カタログに戻る

STARLINK-37010

運用中通信VLEO
NORAD 68289·PAYLOAD·🇺🇸 United States

打ち上げ Mar 19, 2026 から Vandenberg Space Force Base

Loading…

次のパス (今後24時間)

TLE

最新Source: CelesTrak SupGP

元期: Sep 14, 2026, 21:25 UTC

1 68289C 26055AD  26257.89284722 -.00052297  00000+0 -15447-2 0  2571
2 68289  53.1577 156.1842 0001150  83.0413  91.4375 15.34425256    13

AllMySatでSTARLINK-37010をリアルタイム追跡

Download on the App Store